Weather History for KHPN - February, 2013

Change the Weather History Date:

Saturday, February 9, 2013

  Actual Average Record
Temperature  
Mean Temperature 24 °F -  
Max Temperature 30 °F 37 °F 59 °F (1990)
Min Temperature 18 °F 22 °F 1 °F (1979)
Degree Days  
Heating Degree Days 40    
Moisture  
Dew Point 13 °F    
Average Humidity 63    
Maximum Humidity 88    
Minimum Humidity 35    
Precipitation  
Precipitation 0.00 in - - ()
Sea Level Pressure  
Sea Level Pressure 29.97 in    
Wind  
Wind Speed 20 mph (NW)    
Max Wind Speed 30 mph    
Max Gust Speed 39 mph    
Visibility 7 miles    
Events Fog , Snow    
Averages and records for this station are not official NWS values.
T = Trace of Precipitation, MM = Missing Value Source: NWS Daily Summary

Daily Weather History Graph

Daily Weather History Graph

Search for Another Location

Airport or City:

Trip Planner

Search our weather history database for the weather conditions in past years. The results will help you decide how hot, cold, wet, or windy it might be!

Date:

Astronomy

Feb. 09, 2013 Rise Set
Actual Time 6:56 AM EST 5:22 PM EST
Civil Twilight 6:28 AM EST 5:50 PM EST
Nautical Twilight 5:55 AM EST 6:23 PM EST
Astronomical Twilight 5:23 AM EST 6:55 PM EST
Moon 6:06 AM EST (2/9) 5:02 PM EST (2/9)
Length of Visible Light 11h 22m
Length of Day
10h 25m
Waning Crescent, 0% of the Moon is Illuminated
Feb 9
Waning Crescent
Feb 10
New
Feb 17
First Quarter
Feb 25
Full
Mar 4
Last Quarter

Hourly Weather History & Observations

Time (EST) Temp. Windchill Dew Point Humidity Pressure Visibility Wind Dir Wind Speed Gust Speed Precip Events Conditions
12:56 AM 25.0 °F 10.6 °F 21.0 °F 85% 29.74 in 0.2 mi NNW 20.7 mph 32.2 mph 0.00 in Fog , Snow Heavy Snow
1:56 AM 25.0 °F 10.2 °F 21.0 °F 85% 29.76 in 0.2 mi NNW 21.9 mph 29.9 mph 0.00 in Fog , Snow Heavy Snow
2:53 AM 24.8 °F 9.3 °F 21.2 °F 86% 29.74 in 0.2 mi NNW 24.2 mph 31.1 mph 0.00 in Fog , Snow Heavy Snow
2:56 AM 24.1 °F 8.7 °F 21.0 °F 88% 29.77 in 0.2 mi NNW 23.0 mph 32.2 mph 0.00 in Fog , Snow Heavy Snow
3:56 AM 24.1 °F 10.1 °F 21.0 °F 88% 29.78 in 0.2 mi NW 18.4 mph - 0.00 in Fog , Snow Heavy Snow
4:56 AM 25.0 °F 10.6 °F 21.0 °F 85% 29.80 in 1.8 mi NW 20.7 mph 32.2 mph 0.00 in Snow Heavy Snow
5:05 AM 24.8 °F 9.3 °F 19.4 °F 80% 29.76 in 2.0 mi NW 24.2 mph 35.7 mph 0.00 in Snow Light Snow
5:31 AM 24.8 °F 10.0 °F 19.4 °F 80% 29.77 in 2.0 mi NW 21.9 mph 29.9 mph N/A Snow Light Snow
5:56 AM 26.1 °F 11.6 °F 19.9 °F 78% 29.81 in 6.0 mi NW 21.9 mph 28.8 mph N/A Snow Blowing Snow
6:56 AM 26.1 °F 15.0 °F 19.9 °F 78% 29.83 in 10.0 mi NW 12.7 mph - N/A   Overcast
7:56 AM 26.1 °F 13.6 °F 19.0 °F 75% 29.87 in 10.0 mi NNW 16.1 mph 21.9 mph N/A   Overcast
8:03 AM 24.8 °F 12.4 °F 19.4 °F 80% 29.84 in 10.0 mi NNW 15.0 mph - N/A   Overcast
8:56 AM 26.1 °F 13.1 °F 19.0 °F 75% 29.91 in 9.0 mi NNW 17.3 mph 28.8 mph N/A   Overcast
9:56 AM 26.1 °F 11.3 °F 18.0 °F 71% 29.94 in 10.0 mi NW 23.0 mph 31.1 mph N/A   Clear
10:56 AM 28.0 °F 14.3 °F 17.1 °F 63% 29.96 in 10.0 mi NNW 21.9 mph 36.8 mph N/A   Mostly Cloudy
11:56 AM 28.9 °F 14.5 °F 15.1 °F 56% 29.98 in 10.0 mi NW 25.3 mph 33.4 mph N/A   Scattered Clouds
12:56 PM 28.9 °F 14.0 °F 10.9 °F 47% 29.99 in 10.0 mi NW 27.6 mph 38.0 mph N/A   Clear
1:56 PM 28.9 °F 13.5 °F 10.0 °F 45% 30.01 in 10.0 mi NW 29.9 mph 39.1 mph N/A   Clear
2:56 PM 30.0 °F 16.6 °F 9.0 °F 41% 30.04 in 10.0 mi NNW 23.0 mph 31.1 mph N/A   Clear
3:56 PM 28.9 °F 14.5 °F 6.1 °F 38% 30.06 in 10.0 mi NW 25.3 mph 32.2 mph N/A   Clear
4:56 PM 27.0 °F 14.3 °F 3.9 °F 37% 30.11 in 10.0 mi NNW 17.3 mph 29.9 mph N/A   Clear
5:56 PM 26.1 °F 13.1 °F 1.9 °F 35% 30.15 in 10.0 mi NNW 17.3 mph - N/A   Clear
6:56 PM 24.1 °F 13.1 °F 3.0 °F 40% 30.19 in 10.0 mi NW 11.5 mph - N/A   Clear
7:56 PM 21.9 °F 9.8 °F 3.0 °F 44% 30.21 in 10.0 mi NNW 12.7 mph - N/A   Clear
8:56 PM 23.0 °F 11.1 °F 1.9 °F 40% 30.25 in 10.0 mi NNW 12.7 mph - N/A   Clear
9:56 PM 21.0 °F 8.6 °F 1.0 °F 42% 30.29 in 10.0 mi NW 12.7 mph - N/A   Clear
10:56 PM 19.9 °F 6.7 °F 1.9 °F 46% 30.30 in 10.0 mi NNW 13.8 mph - N/A   Clear
11:56 PM 18.0 °F 3.6 °F 3.0 °F 52% 30.32 in 10.0 mi NW 15.0 mph - N/A   Clear